EW2984 Weather Reports


Display with metric or nautical units.
time (UTC)temp
F
wind
direction
speed
MPH
gust
MPH
rain 1hr
in
rain 24hr
in
rain mn
in
humidity
%
barometer
mb
20260905100109 71 120 0.0 0.0 0.00 0.00 0.00 87 1010.8
20260905094559 71 142 0.0 0.0 0.00 0.00 0.00 87 1010.8
20260905093102 72 139 0.0 1.0 0.00 0.00 0.00 88 1010.7
20260905091604 72 167 0.0 0.0 0.00 0.00 0.00 89 1010.7
20260905090057 72 131 0.0 1.0 0.00 0.00 0.00 92 1010.6
20260905084557 72 97 0.0 1.0 0.00 0.00 0.00 93 1010.6
20260905083054 72 193 0.0 0.0 0.00 0.00 0.00 94 1010.6
20260905081603 72 193 0.0 0.0 0.00 0.00 0.00 94 1010.6
20260905080058 72 193 0.0 0.0 0.00 0.00 0.00 94 1010.7
20260905074552 72 222 0.0 0.0 0.00 0.00 0.00 93 1010.7
20260905073051 72 222 0.0 0.0 0.00 0.00 0.00 94 1010.8
20260905071555 72 222 0.0 0.0 0.00 0.00 0.00 94 1010.9
20260905070047 72 222 0.0 0.0 0.00 0.00 0.00 94 1011.0
20260905064549 72 223 0.0 0.0 0.00 0.00 0.00 94 1011.1
20260905063058 72 223 0.0 0.0 0.00 0.00 0.00 92 1011.1
20260905061559 73 223 0.0 0.0 0.00 0.00 0.00 92 1011.1
20260905060040 73 223 0.0 0.0 0.00 0.00 0.00 91 1011.2
20260905054539 73 223 0.0 0.0 0.00 0.00 0.00 91 1011.2
20260905053037 73 223 0.0 0.0 0.00 0.00 0.00 91 1011.6
20260905051536 73 223 0.0 0.0 0.00 0.00 0.00 91 1011.7
20260905050034 73 223 0.0 0.0 0.00 0.00 0.00 92 1011.7
20260905044535 73 223 0.0 0.0 0.00 0.00 0.00 92 1011.8
20260905043032 73 223 0.0 0.0 0.00 0.00 0.00 92 1011.8
20260905041530 74 223 0.0 0.0 0.00 0.00 0.00 91 1011.8
20260905040026 74 223 0.0 0.0 0.00 0.00 0.00 91 1011.9
20260905034526 74 224 0.0 1.0 0.00 0.00 0.00 91 1012.0
20260905033033 74 224 0.0 0.0 0.00 0.00 0.00 92 1011.8
20260905031530 74 224 0.0 0.0 0.00 0.00 0.00 92 1011.9
20260905030033 75 224 0.0 0.0 0.00 0.00 0.00 92 1011.8
20260905024531 75 224 0.0 0.0 0.00 0.00 0.00 91 1011.7
20260905023024 75 224 0.0 0.0 0.00 0.00 0.00 91 1011.5
20260905021524 75 224 0.0 0.0 0.00 0.00 0.00 91 1011.6
20260905020040 76 224 0.0 0.0 0.00 0.00 0.00 91 1011.4
20260905014523 76 224 0.0 0.0 0.00 0.00 0.00 91 1011.3
20260905013022 76 224 0.0 0.0 0.00 0.00 0.00 90 1011.3
20260905011521 76 224 0.0 0.0 0.00 0.00 0.00 89 1011.2
20260905010020 77 224 0.0 0.0 0.00 0.00 0.00 88 1011.3
20260905004520 77 224 0.0 0.0 0.00 0.00 0.00 86 1011.3
20260905003020 78 224 0.0 0.0 0.00 0.00 0.00 84 1011.2
20260905001519 78 224 0.0 0.0 0.00 0.00 0.00 83 1011.0
20260905000019 79 224 0.0 0.0 0.00 0.00 0.00 82 1011.1
20260904234518 79 224 0.0 0.0 0.00 0.00 0.00 81 1011.2
20260904233017 80 224 0.0 0.0 0.00 0.00 0.00 81 1011.1
20260904231519 80 224 0.0 0.0 0.00 0.00 0.00 80 1011.2
20260904230016 81 217 0.0 0.0 0.00 0.00 0.00 78 1011.1
20260904224516 82 217 0.0 0.0 0.00 0.00 0.00 75 1011.1
20260904223020 82 217 0.0 0.0 0.00 0.00 0.00 74 1011.1
20260904221513 83 222 0.0 0.0 0.00 0.00 0.00 73 1011.2
20260904220011 84 223 0.0 1.0 0.00 0.00 0.00 70 1011.3
20260904214510 85 218 0.0 1.0 0.00 0.00 0.00 70 1011.5
20260904213022 85 221 0.0 3.0 0.00 0.00 0.00 68 1011.7
20260904211509 85 216 0.0 2.0 0.00 0.00 0.00 68 1011.7
20260904210023 85 213 0.0 3.0 0.00 0.00 0.00 68 1011.7
20260904204508 85 226 0.0 1.0 0.00 0.00 0.00 70 1012.0
20260904203007 85 235 0.0 2.0 0.00 0.00 0.00 70 1011.7
20260904201506 86 219 0.0 1.0 0.00 0.00 0.00 68 1011.9
20260904200005 86 232 0.0 2.0 0.00 0.00 0.00 68 1012.0
20260904194505 86 211 0.0 3.0 0.00 0.00 0.00 68 1011.9
20260904193003 87 207 0.0 1.0 0.00 0.00 0.00 63 1012.0
20260904191503 87 82 0.0 1.0 0.00 0.00 0.00 67 1012.4
20260904190000 88 224 0.0 0.0 0.00 0.00 0.00 69 1012.9
20260904184557 86 221 0.0 1.0 0.00 0.00 0.00 70 1013.1
20260904183055 86 220 0.0 1.0 0.00 0.00 0.00 72 1013.3
20260904181555 85 205 0.0 3.0 0.00 0.00 0.00 70 1013.3
20260904180049 83 186 0.0 3.0 0.00 0.00 0.00 70 1013.3
20260904174553 82 89 0.0 3.0 0.00 0.00 0.00 73 1013.3
20260904173050 82 122 0.0 1.0 0.00 0.00 0.00 73 1013.4
20260904171554 81 121 0.0 2.0 0.00 0.00 0.00 78 1013.7
20260904170040 81 219 0.0 2.0 0.00 0.00 0.00 76 1013.6
20260904164547 81 162 0.0 2.0 0.00 0.00 0.00 76 1013.7
20260904163038 81 141 0.0 4.0 0.00 0.00 0.00 75 1013.8
20260904161536 81 217 0.0 3.0 0.00 0.00 0.00 76 1013.9
20260904160034 80 228 0.0 2.0 0.00 0.00 0.00 76 1014.0
20260904154532 80 232 0.0 2.0 0.00 0.02 0.00 75 1014.0
20260904153034 79 212 0.0 2.0 0.00 0.02 0.00 75 1014.0
20260904151530 79 228 0.0 3.0 0.00 0.02 0.00 79 1014.1
20260904150036 79 226 0.0 1.0 0.00 0.02 0.00 77 1014.0
20260904144527 79 160 0.0 1.0 0.00 0.03 0.00 78 1014.2
20260904143026 79 256 0.0 1.0 0.00 0.03 0.00 78 1014.1
20260904141528 78 226 0.0 1.0 0.00 0.03 0.00 79 1014.0
20260904140020 77 56 0.0 1.0 0.00 0.03 0.00 83 1014.1
20260904134517 75 232 0.0 1.0 0.00 0.03 0.00 84 1014.1
20260904133016 74 222 0.0 2.0 0.00 0.03 0.00 86 1013.9
20260904131514 74 107 0.0 1.0 0.00 0.03 0.00 88 1014.0
20260904130014 73 163 0.0 3.0 0.00 0.03 0.00 89 1014.2
20260904124514 72 217 0.0 0.0 0.00 0.03 0.00 90 1014.4
20260904123013 71 216 0.0 3.0 0.00 0.03 0.00 92 1014.3
20260904121513 70 225 0.0 0.0 0.00 0.03 0.00 94 1014.5
20260904120011 69 225 0.0 0.0 0.00 0.04 0.00 96 1014.6
20260904114510 69 225 0.0 0.0 0.00 0.04 0.00 97 1014.5
20260904113010 68 225 0.0 0.0 0.00 0.04 0.00 97 1014.4
20260904111506 68 225 0.0 0.0 0.00 0.04 0.00 96 1014.0
20260904110004 68 225 0.0 0.0 0.00 0.06 0.00 95 1013.8
20260904104606 68 225 0.0 1.0 0.00 0.06 0.00 95 1013.6
20260904103109 69 226 0.0 0.0 0.00 0.06 0.00 95 1013.4
20260904101558 69 229 0.0 1.0 0.00 0.06 0.00 95 1013.3